< < Back
Terminal Aerodrome Forecast


Current Version              Previous Versions:   1  2  3  4  5  6  7  8  9  

Terminal Aerodrome Forecast

510
FTUS44 KHUN 211140
TAFHSV
TAF
KHSV 211140Z 2112/2212 VRB03KT P6SM SCT035
     FM211400 34010KT P6SM FEW035
     FM220000 02005KT P6SM SKC=



Latest METAR

394
SAUS80 KWBC 221500 RRD
MTRHSV
METAR KHSV 221453Z 03007KT 10SM CLR 15/06 A3021 RMK AO2 SLP227 T01500061
51014


USA.gov is the U.S. government's official web portal to all federal, state and local government web resources and services.